This is the latest recevied weather packets stored in our database for station/object AG7BI. If no packets are shown the sender has not sent any weather packets the latest 10 day(s).
| Time | Temp. | Humidity | Pressure | Rain* | Wind** | Luminosity | Snow |
|---|---|---|---|---|---|---|---|
| 1777795552 | 12.78° C | 70% | 1015.1 hPa | 0 mm | - | - | - |
| 1777795252 | 12.78° C | 67% | 1014.9 hPa | 0 mm | - | - | - |
| 1777794952 | 12.78° C | 68% | 1015 hPa | 0 mm | - | - | - |
| 1777794652 | 12.78° C | 68% | 1014.9 hPa | 0 mm | - | - | - |
| 1777794352 | 12.78° C | 68% | 1014.9 hPa | 0 mm | - | - | - |
| 1777794052 | 12.78° C | 69% | 1014.8 hPa | 0 mm | - | - | - |
| 1777793752 | 12.78° C | 68% | 1015.1 hPa | 0 mm | - | - | - |
| 1777793452 | 12.22° C | 70% | 1015 hPa | 0 mm | - | - | - |
| 1777793152 | 12.22° C | 69% | 1014.9 hPa | 0 mm | - | - | - |
| 1777792852 | 12.22° C | 70% | 1015 hPa | 0 mm | - | - | - |
| 1777792552 | 12.78° C | 68% | 1014.9 hPa | 0 mm | - | - | - |
| 1777792252 | 12.78° C | 68% | 1014.5 hPa | 0 mm | - | - | - |
| 1777791952 | 12.78° C | 68% | 1014.9 hPa | 0 mm | - | - | - |
| 1777791652 | 12.78° C | 69% | 1014.9 hPa | 0 mm | - | - | - |
| 1777791352 | 12.78° C | 68% | 1014.9 hPa | 0 mm | - | - | - |
| 1777791052 | 12.78° C | 67% | 1014.7 hPa | 0 mm | - | - | - |
| 1777790752 | 12.78° C | 68% | 1014.8 hPa | 0 mm | - | - | - |
| 1777790452 | 12.78° C | 68% | 1014.8 hPa | 0 mm | - | - | - |
| 1777790152 | 12.78° C | 67% | 1015.1 hPa | 0 mm | - | - | - |
| 1777789852 | 12.78° C | 67% | 1014.8 hPa | 0 mm | - | - | - |
| 1777789552 | 12.78° C | 67% | 1014.9 hPa | 0 mm | - | - | - |
| 1777789252 | 12.78° C | 67% | 1014.9 hPa | 0 mm | - | - | - |
| 1777788952 | 13.33° C | 66% | 1014.8 hPa | 0 mm | - | - | - |
| 1777788652 | 13.33° C | 67% | 1015 hPa | 0 mm | - | - | - |
| 1777788352 | 13.33° C | 64% | 1014.9 hPa | 0 mm | - | - | - |
* Rain latest hour (hover to see other rain measurements)
** Current wind speed in m/s (hover to see current wind gust speed)